Location: ???????
(55.7027°N, 37.3832°E)
Time: 20:06:20
(UTC+00:00)

Cosmos 1741 Rocket - Pass Details

Date: 14 April 2026
Orbit: 756 x 778 km, 74.0° (Epoch: 16 May)

Event Time Altitude Azimuth Distance (km) Brightness Sun altitude
Rises 22:20:52 0° 331° (NNW) 3,261 8.0 -23.8°
Reaches altitude 10° 22:23:15 10° 332° (NNW) 2,333 7.1 -23.7°
Maximum altitude 22:28:35 90° 281° (W) 785 3.9 -23.5°
Enters shadow 22:29:51 54° 153° (SSE) 943 4.1 -23.5°
